THY2FB LTFM-EDDF

Flight info

Callsign THY2FB
Flight time 2h 42m
Altitude 34000
Route TUDBU Q26 ETUBA DCT NAVOD DCT MOPUG DCT ARSIN DCT SUBEN DCT AKINI T161 DEBHI SPESA5C
Aircraft A21N/M-SDE2E3FGHIRWXY/LB1

Departure

Time 2026-04-18 05:23
Airport İstanbul Airport (LTFM)

Arrival

Time 2026-04-18 08:06
Airport Frankfurt Main Airport (EDDF)
Time Latitude Longitude Altitude Speed Heading
2026-04-18 04:57 41.26600 28.75000 340 ft 0 kts 287°
2026-04-18 05:14 41.26597 28.75011 335 ft 4 kts 287°
2026-04-18 05:15 41.26589 28.75046 335 ft 4 kts 287°
2026-04-18 05:15 41.26581 28.75079 335 ft 4 kts 298°
2026-04-18 05:15 41.26564 28.75103 334 ft 4 kts 336°
2026-04-18 05:15 41.26540 28.75108 335 ft 3 kts 14°
2026-04-18 05:16 41.26522 28.75101 336 ft 1 kts 17°
2026-04-18 05:16 41.26521 28.75100 336 ft 0 kts 17°
2026-04-18 05:19 41.26542 28.75109 335 ft 7 kts 17°
2026-04-18 05:19 41.26604 28.75140 338 ft 11 kts 40°
2026-04-18 05:20 41.26608 28.75241 338 ft 13 kts 134°
2026-04-18 05:20 41.26513 28.75272 335 ft 16 kts 179°
2026-04-18 05:20 41.26388 28.75273 337 ft 19 kts 179°
2026-04-18 05:20 41.26290 28.75277 339 ft 11 kts 178°
2026-04-18 05:21 41.26246 28.75359 339 ft 13 kts 90°
2026-04-18 05:21 41.26248 28.75489 339 ft 15 kts 89°
2026-04-18 05:21 41.26251 28.75629 339 ft 9 kts 86°
2026-04-18 05:21 41.26298 28.75670 335 ft 5 kts 358°
2026-04-18 05:22 41.26315 28.75669 335 ft 2 kts 358°
2026-04-18 05:22 41.26456 28.75664 339 ft 56 kts 359°
2026-04-18 05:23 41.27097 28.75654 337 ft 127 kts 359°
2026-04-18 05:23 41.28120 28.75640 577 ft 155 kts 360°
2026-04-18 05:23 41.29198 28.75759 1264 ft 158 kts 13°
2026-04-18 05:23 41.30205 28.76350 2009 ft 160 kts 33°
2026-04-18 05:24 41.31110 28.77235 2666 ft 164 kts 34°
2026-04-18 05:24 41.32138 28.77919 3320 ft 168 kts 25°
2026-04-18 05:24 41.33210 28.78587 3987 ft 172 kts 28°
2026-04-18 05:24 41.34255 28.79423 4645 ft 179 kts 33°
2026-04-18 05:25 41.35349 28.80318 5142 ft 191 kts 30°
2026-04-18 05:25 41.36570 28.81233 5509 ft 214 kts 30°
2026-04-18 05:25 41.37979 28.82163 5900 ft 237 kts 20°
2026-04-18 05:25 41.39651 28.82479 6555 ft 250 kts
2026-04-18 05:26 41.41403 28.82280 7310 ft 255 kts 357°
2026-04-18 05:26 41.42581 28.82113 7811 ft 259 kts 357°
2026-04-18 05:26 41.44387 28.81861 8580 ft 263 kts 357°
2026-04-18 05:26 41.46225 28.81617 9335 ft 268 kts 357°
2026-04-18 05:27 41.48097 28.81375 10062 ft 273 kts 357°
2026-04-18 05:27 41.50705 28.81048 10530 ft 297 kts 357°
2026-04-18 05:27 41.52835 28.80785 10787 ft 317 kts 356°
2026-04-18 05:27 41.54353 28.80597 10961 ft 330 kts 356°
2026-04-18 05:28 41.56702 28.80277 11230 ft 349 kts 353°
2026-04-18 05:28 41.59073 28.79383 11750 ft 360 kts 338°
2026-04-18 05:28 41.61195 28.77557 12438 ft 368 kts 321°
2026-04-18 05:28 41.62833 28.74897 13169 ft 376 kts 303°
2026-04-18 05:29 41.63915 28.71697 13862 ft 381 kts 294°
2026-04-18 05:29 41.64847 28.68368 14487 ft 384 kts 293°
2026-04-18 05:29 41.65788 28.65018 15096 ft 386 kts 293°
2026-04-18 05:29 41.66673 28.61618 15716 ft 390 kts 287°
2026-04-18 05:30 41.67055 28.58006 16354 ft 396 kts 275°
2026-04-18 05:30 41.67108 28.54362 16996 ft 398 kts 272°
2026-04-18 05:30 41.67141 28.50645 17621 ft 401 kts 275°
2026-04-18 05:30 41.67706 28.47013 18213 ft 400 kts 291°
2026-04-18 05:31 41.68956 28.43686 18748 ft 402 kts 300°
2026-04-18 05:31 41.70373 28.40446 19247 ft 405 kts 300°
2026-04-18 05:31 41.71796 28.37188 19765 ft 407 kts 300°
2026-04-18 05:31 41.73211 28.33877 20262 ft 411 kts 299°
2026-04-18 05:32 41.74624 28.30540 20753 ft 414 kts 298°
2026-04-18 05:32 41.76040 28.27174 21244 ft 416 kts 298°
2026-04-18 05:32 41.77464 28.23781 21729 ft 419 kts 298°
2026-04-18 05:32 41.78684 28.20867 22150 ft 421 kts 298°
2026-04-18 05:33 41.80120 28.17428 22611 ft 424 kts 298°
2026-04-18 05:33 41.81572 28.13965 23067 ft 428 kts 298°
2026-04-18 05:33 41.83032 28.10475 23515 ft 431 kts 298°
2026-04-18 05:33 41.84321 28.07390 23846 ft 433 kts 298°
2026-04-18 05:34 41.85795 28.03852 24222 ft 436 kts 297°
2026-04-18 05:34 41.87276 28.00299 24593 ft 439 kts 297°
2026-04-18 05:34 41.88768 27.96715 24967 ft 441 kts 297°
2026-04-18 05:34 41.90269 27.93110 25352 ft 444 kts 297°
2026-04-18 05:35 41.91776 27.89483 25740 ft 446 kts 297°
2026-04-18 05:35 41.93284 27.85835 26126 ft 448 kts 297°
2026-04-18 05:35 41.94800 27.82169 26498 ft 450 kts 297°
2026-04-18 05:35 41.96396 27.78538 26853 ft 454 kts 302°
2026-04-18 05:36 41.98405 27.75256 27292 ft 456 kts 311°
2026-04-18 05:36 42.00620 27.72200 27772 ft 455 kts 311°
2026-04-18 05:36 42.02846 27.69178 28247 ft 454 kts 311°
2026-04-18 05:36 42.05069 27.66163 28713 ft 453 kts 311°
2026-04-18 05:37 42.07277 27.63155 29172 ft 452 kts 311°
2026-04-18 05:37 42.09478 27.60137 29634 ft 451 kts 311°
2026-04-18 05:37 42.11673 27.57125 30061 ft 450 kts 311°
2026-04-18 05:37 42.13859 27.54113 30428 ft 449 kts 310°
2026-04-18 05:38 42.16037 27.51107 30812 ft 447 kts 311°
2026-04-18 05:38 42.18212 27.48117 31179 ft 446 kts 311°
2026-04-18 05:38 42.20380 27.45138 31553 ft 444 kts 310°
2026-04-18 05:38 42.22534 27.42167 31914 ft 442 kts 310°
2026-04-18 05:39 42.24679 27.39203 32253 ft 441 kts 310°
2026-04-18 05:39 42.26812 27.36242 32591 ft 439 kts 310°
2026-04-18 05:39 42.28939 27.33293 32917 ft 437 kts 310°
2026-04-18 05:39 42.31056 27.30350 33238 ft 436 kts 310°
2026-04-18 05:40 42.33168 27.27418 33548 ft 435 kts 310°
2026-04-18 05:40 42.35269 27.24499 33833 ft 433 kts 310°
2026-04-18 05:40 42.37373 27.21579 33975 ft 433 kts 310°
2026-04-18 05:40 42.39469 27.18661 33992 ft 432 kts 310°
2026-04-18 05:41 42.43651 27.12830 33979 ft 431 kts 310°
2026-04-18 05:41 42.47804 27.07036 33967 ft 431 kts 310°
2026-04-18 05:42 42.51980 27.01194 33965 ft 431 kts 309°
2026-04-18 05:42 42.56153 26.95342 33969 ft 432 kts 309°
2026-04-18 05:43 42.60321 26.89477 33971 ft 432 kts 309°
2026-04-18 05:43 42.64478 26.83605 33970 ft 432 kts 309°
2026-04-18 05:44 42.68646 26.77726 33969 ft 432 kts 309°
2026-04-18 05:44 42.72812 26.71832 33970 ft 432 kts 309°
2026-04-18 05:45 42.76984 26.65924 33974 ft 433 kts 309°
2026-04-18 05:45 42.81117 26.59956 33974 ft 432 kts 306°
2026-04-18 05:46 42.84498 26.53260 33980 ft 429 kts 299°
2026-04-18 05:46 42.87733 26.46427 33988 ft 429 kts 299°
2026-04-18 05:47 42.90972 26.39604 33990 ft 429 kts 299°
2026-04-18 05:47 42.94212 26.32772 33998 ft 429 kts 300°
2026-04-18 05:48 42.97449 26.25939 34003 ft 428 kts 300°
2026-04-18 05:48 43.00682 26.19102 34011 ft 428 kts 300°
2026-04-18 05:49 43.03886 26.12307 34021 ft 428 kts 300°
2026-04-18 05:49 43.07106 26.05472 34028 ft 427 kts 300°
2026-04-18 05:50 43.10310 25.98635 34039 ft 427 kts 300°
2026-04-18 05:50 43.13505 25.91804 34047 ft 426 kts 300°
2026-04-18 05:51 43.16701 25.84956 34054 ft 427 kts 300°
2026-04-18 05:51 43.19899 25.78096 34057 ft 427 kts 300°
2026-04-18 05:52 43.23098 25.71225 34054 ft 428 kts 300°
2026-04-18 05:52 43.26298 25.64321 34053 ft 429 kts 300°
2026-04-18 05:53 43.29503 25.57398 34051 ft 430 kts 300°
2026-04-18 05:53 43.32702 25.50460 34047 ft 430 kts 300°
2026-04-18 05:54 43.35895 25.43521 34042 ft 429 kts 300°
2026-04-18 05:54 43.39085 25.36579 34042 ft 429 kts 300°
2026-04-18 05:55 43.42272 25.29638 34044 ft 429 kts 300°
2026-04-18 05:55 43.45445 25.22695 34045 ft 429 kts 300°
2026-04-18 05:56 43.48621 25.15730 34048 ft 429 kts 300°
2026-04-18 05:56 43.51776 25.08804 34050 ft 430 kts 300°
2026-04-18 05:57 43.56531 24.98311 34053 ft 430 kts 301°
2026-04-18 05:58 43.59697 24.91306 34056 ft 431 kts 301°
2026-04-18 05:58 43.62867 24.84278 34058 ft 431 kts 301°
2026-04-18 05:59 43.66038 24.77238 34060 ft 432 kts 301°
2026-04-18 05:59 43.69212 24.70183 34062 ft 433 kts 301°
2026-04-18 06:00 43.72384 24.63113 34062 ft 433 kts 301°
2026-04-18 06:00 43.75613 24.56094 34060 ft 433 kts 306°
2026-04-18 06:01 43.79614 24.49866 34063 ft 433 kts 312°
2026-04-18 06:01 43.83701 24.43772 34066 ft 432 kts 311°
2026-04-18 06:02 43.87763 24.37659 34070 ft 431 kts 311°
2026-04-18 06:02 43.91817 24.31548 34067 ft 430 kts 312°
2026-04-18 06:03 43.95835 24.25476 34068 ft 430 kts 312°
2026-04-18 06:03 43.99881 24.19390 34068 ft 429 kts 312°
2026-04-18 06:04 44.03909 24.13293 34067 ft 428 kts 312°
2026-04-18 06:04 44.07911 24.07182 34064 ft 427 kts 312°
2026-04-18 06:05 44.11913 24.01090 34062 ft 426 kts 312°
2026-04-18 06:05 44.15912 23.95011 34060 ft 425 kts 312°
2026-04-18 06:06 44.19888 23.88934 34055 ft 424 kts 312°
2026-04-18 06:06 44.23856 23.82866 34056 ft 423 kts 312°
2026-04-18 06:07 44.27801 23.76800 34055 ft 422 kts 312°
2026-04-18 06:07 44.31744 23.70721 34056 ft 422 kts 312°
2026-04-18 06:08 44.35686 23.64647 34060 ft 422 kts 312°
2026-04-18 06:08 44.39620 23.58567 34060 ft 421 kts 312°
2026-04-18 06:09 44.43550 23.52489 34061 ft 421 kts 312°
2026-04-18 06:09 44.47469 23.46401 34063 ft 421 kts 312°
2026-04-18 06:10 44.51381 23.40297 34064 ft 421 kts 312°
2026-04-18 06:10 44.55284 23.34189 34063 ft 421 kts 312°
2026-04-18 06:11 44.59195 23.28067 34063 ft 421 kts 312°
2026-04-18 06:11 44.63111 23.21939 34065 ft 422 kts 313°
2026-04-18 06:12 44.67041 23.15815 34055 ft 422 kts 313°
2026-04-18 06:12 44.70961 23.09662 34059 ft 423 kts 313°
2026-04-18 06:13 44.74879 23.03485 34058 ft 423 kts 313°
2026-04-18 06:13 44.78557 22.97682 34061 ft 424 kts 313°
2026-04-18 06:14 44.82475 22.91469 34055 ft 424 kts 313°
2026-04-18 06:14 44.86395 22.85254 34056 ft 425 kts 313°
2026-04-18 06:15 44.90315 22.79017 34055 ft 425 kts 313°
2026-04-18 06:15 44.93574 22.73826 34056 ft 425 kts 313°
2026-04-18 06:16 44.97487 22.67574 34058 ft 425 kts 313°
2026-04-18 06:16 45.01389 22.61328 34058 ft 424 kts 313°
2026-04-18 06:17 45.05289 22.55079 34065 ft 423 kts 313°
2026-04-18 06:17 45.09170 22.48833 34066 ft 422 kts 313°
2026-04-18 06:18 45.13040 22.42606 34075 ft 421 kts 313°
2026-04-18 06:18 45.16898 22.36382 34080 ft 420 kts 313°
2026-04-18 06:19 45.20740 22.30161 34077 ft 418 kts 313°
2026-04-18 06:19 45.24572 22.23947 34081 ft 419 kts 313°
2026-04-18 06:20 45.28404 22.17718 34084 ft 419 kts 313°
2026-04-18 06:20 45.32232 22.11472 34085 ft 419 kts 313°
2026-04-18 06:21 45.36067 22.05216 34085 ft 420 kts 313°
2026-04-18 06:21 45.39896 21.98950 34095 ft 420 kts 313°
2026-04-18 06:22 45.43735 21.92666 34087 ft 421 kts 313°
2026-04-18 06:22 45.47571 21.86358 34092 ft 421 kts 313°
2026-04-18 06:23 45.51406 21.80035 34095 ft 422 kts 313°
2026-04-18 06:23 45.55244 21.73699 34096 ft 422 kts 313°
2026-04-18 06:24 45.59078 21.67347 34096 ft 422 kts 313°
2026-04-18 06:24 45.62916 21.60984 34104 ft 423 kts 313°
2026-04-18 06:25 45.66749 21.54614 34108 ft 423 kts 313°
2026-04-18 06:25 45.70585 21.48222 34111 ft 423 kts 313°
2026-04-18 06:26 45.74417 21.41814 34110 ft 424 kts 313°
2026-04-18 06:26 45.78252 21.35400 34112 ft 424 kts 313°
2026-04-18 06:27 45.82073 21.28963 34109 ft 424 kts 313°
2026-04-18 06:27 45.85870 21.22567 34112 ft 424 kts 313°
2026-04-18 06:28 45.89713 21.16084 34118 ft 423 kts 313°
2026-04-18 06:28 45.93523 21.09657 34120 ft 423 kts 314°
2026-04-18 06:29 45.97339 21.03231 34127 ft 422 kts 314°
2026-04-18 06:29 46.01112 20.96827 34144 ft 422 kts 314°
2026-04-18 06:30 46.04908 20.90376 34137 ft 422 kts 314°
2026-04-18 06:30 46.08694 20.83915 34132 ft 422 kts 314°
2026-04-18 06:31 46.12474 20.77450 34131 ft 422 kts 314°
2026-04-18 06:31 46.16193 20.70917 34138 ft 424 kts 309°
2026-04-18 06:32 46.18958 20.64048 34142 ft 427 kts 303°
2026-04-18 06:32 46.21796 20.56515 34143 ft 427 kts 303°
2026-04-18 06:33 46.24645 20.48992 34145 ft 427 kts 303°
2026-04-18 06:33 46.27494 20.41467 34141 ft 427 kts 303°
2026-04-18 06:34 46.30334 20.33936 34158 ft 426 kts 303°
2026-04-18 06:34 46.33165 20.26408 34161 ft 426 kts 303°
2026-04-18 06:35 46.35994 20.18866 34159 ft 426 kts 303°
2026-04-18 06:35 46.38815 20.11313 34161 ft 426 kts 303°
2026-04-18 06:36 46.41631 20.03758 34169 ft 426 kts 303°
2026-04-18 06:36 46.44454 19.96207 34172 ft 426 kts 303°
2026-04-18 06:37 46.47255 19.88649 34170 ft 426 kts 303°
2026-04-18 06:37 46.50032 19.81126 34177 ft 426 kts 303°
2026-04-18 06:38 46.52824 19.73548 34175 ft 425 kts 303°
2026-04-18 06:38 46.55616 19.65973 34180 ft 425 kts 303°
2026-04-18 06:39 46.58402 19.58392 34180 ft 425 kts 303°
2026-04-18 06:39 46.61174 19.50807 34185 ft 424 kts 303°
2026-04-18 06:40 46.63935 19.43229 34183 ft 424 kts 303°
2026-04-18 06:40 46.66690 19.35638 34183 ft 424 kts 303°
2026-04-18 06:41 46.69450 19.28053 34186 ft 424 kts 303°
2026-04-18 06:41 46.72197 19.20461 34183 ft 423 kts 303°
2026-04-18 06:42 46.74930 19.12867 34188 ft 423 kts 303°
2026-04-18 06:42 46.77656 19.05276 34193 ft 422 kts 303°
2026-04-18 06:43 46.80371 18.97698 34192 ft 421 kts 303°
2026-04-18 06:43 46.83086 18.90120 34191 ft 421 kts 303°
2026-04-18 06:44 46.85788 18.82540 34187 ft 421 kts 304°
2026-04-18 06:44 46.88462 18.75007 34188 ft 420 kts 304°
2026-04-18 06:45 46.91151 18.67429 34187 ft 419 kts 304°
2026-04-18 06:45 46.93828 18.59851 34192 ft 419 kts 304°
2026-04-18 06:46 46.96503 18.52278 34191 ft 419 kts 304°
2026-04-18 06:46 46.99164 18.44698 34191 ft 418 kts 304°
2026-04-18 06:47 47.01817 18.37135 34189 ft 417 kts 304°
2026-04-18 06:47 47.04462 18.29564 34189 ft 417 kts 305°
2026-04-18 06:48 47.07099 18.21997 34193 ft 416 kts 305°
2026-04-18 06:48 47.09724 18.14428 34190 ft 416 kts 305°
2026-04-18 06:49 47.12348 18.06865 34190 ft 415 kts 306°
2026-04-18 06:49 47.14964 17.99297 34198 ft 416 kts 306°
2026-04-18 06:50 47.17574 17.91716 34200 ft 416 kts 306°
2026-04-18 06:50 47.20179 17.84137 34211 ft 416 kts 306°
2026-04-18 06:51 47.22778 17.76531 34216 ft 416 kts 306°
2026-04-18 06:51 47.25379 17.68921 34216 ft 416 kts 306°
2026-04-18 06:52 47.27977 17.61304 34224 ft 416 kts 306°
2026-04-18 06:52 47.30570 17.53673 34224 ft 417 kts 305°
2026-04-18 06:53 47.33154 17.46025 34223 ft 417 kts 305°
2026-04-18 06:53 47.35729 17.38361 34224 ft 417 kts 305°
2026-04-18 06:54 47.38311 17.30709 34222 ft 417 kts 305°
2026-04-18 06:54 47.40892 17.23035 34225 ft 417 kts 305°
2026-04-18 06:55 47.43465 17.15347 34218 ft 418 kts 304°
2026-04-18 06:55 47.46014 17.07698 34218 ft 418 kts 304°
2026-04-18 06:56 47.48580 16.99989 34213 ft 418 kts 304°
2026-04-18 06:56 47.51140 16.92273 34213 ft 418 kts 304°
2026-04-18 06:57 47.53693 16.84532 34217 ft 419 kts 304°
2026-04-18 06:57 47.57417 16.72805 34221 ft 423 kts 300°
2026-04-18 06:58 47.59626 16.64730 34221 ft 423 kts 300°
2026-04-18 06:58 47.61818 16.56633 34222 ft 423 kts 299°
2026-04-18 06:59 47.64015 16.48527 34228 ft 424 kts 299°
2026-04-18 06:59 47.66212 16.40405 34230 ft 424 kts 299°
2026-04-18 07:00 47.68402 16.32277 34240 ft 425 kts 299°
2026-04-18 07:00 47.70593 16.24126 34231 ft 425 kts 298°
2026-04-18 07:01 47.72761 16.16015 34225 ft 425 kts 298°
2026-04-18 07:01 47.74939 16.07841 34229 ft 426 kts 298°
2026-04-18 07:02 47.77111 15.99659 34224 ft 426 kts 298°
2026-04-18 07:02 47.79281 15.91454 34234 ft 426 kts 298°
2026-04-18 07:03 47.81445 15.83237 34230 ft 427 kts 297°
2026-04-18 07:03 47.83254 15.76345 34235 ft 426 kts 297°
2026-04-18 07:04 47.85392 15.68175 34232 ft 426 kts 297°
2026-04-18 07:04 47.87532 15.59945 34229 ft 427 kts 297°
2026-04-18 07:05 47.89674 15.51698 34235 ft 427 kts 297°
2026-04-18 07:05 47.91814 15.43448 34230 ft 427 kts 297°
2026-04-18 07:06 47.93955 15.35197 34231 ft 427 kts 296°
2026-04-18 07:06 47.96084 15.26932 34231 ft 427 kts 296°
2026-04-18 07:07 47.98211 15.18661 34233 ft 427 kts 296°
2026-04-18 07:07 48.00326 15.10378 34229 ft 427 kts 296°
2026-04-18 07:08 48.02433 15.02101 34233 ft 427 kts 295°
2026-04-18 07:08 48.04532 14.93805 34233 ft 427 kts 295°
2026-04-18 07:09 48.06628 14.85507 34233 ft 427 kts 295°
2026-04-18 07:09 48.08716 14.77208 34233 ft 426 kts 295°
2026-04-18 07:10 48.10787 14.68963 34235 ft 426 kts 295°
2026-04-18 07:10 48.12851 14.60647 34235 ft 426 kts 294°
2026-04-18 07:11 48.14909 14.52341 34242 ft 426 kts 294°
2026-04-18 07:11 48.16976 14.44029 34250 ft 425 kts 294°
2026-04-18 07:12 48.19029 14.35724 34257 ft 425 kts 294°
2026-04-18 07:12 48.21075 14.27413 34260 ft 425 kts 294°
2026-04-18 07:13 48.23122 14.19101 34258 ft 425 kts 294°
2026-04-18 07:13 48.25154 14.10784 34259 ft 424 kts 293°
2026-04-18 07:14 48.27175 14.02470 34258 ft 424 kts 293°
2026-04-18 07:14 48.29191 13.94146 34251 ft 424 kts 293°
2026-04-18 07:15 48.31205 13.85818 34244 ft 424 kts 293°
2026-04-18 07:15 48.33214 13.77498 34239 ft 424 kts 292°
2026-04-18 07:16 48.35212 13.69161 34231 ft 424 kts 292°
2026-04-18 07:16 48.37201 13.60825 34224 ft 424 kts 292°
2026-04-18 07:17 48.39193 13.52486 34225 ft 423 kts 292°
2026-04-18 07:17 48.41173 13.44152 34227 ft 423 kts 292°
2026-04-18 07:18 48.43149 13.35798 34220 ft 423 kts 292°
2026-04-18 07:18 48.45269 13.27541 34218 ft 423 kts 294°
2026-04-18 07:19 48.47446 13.19313 34211 ft 423 kts 293°
2026-04-18 07:19 48.49615 13.11076 34211 ft 423 kts 293°
2026-04-18 07:20 48.51771 13.02828 34213 ft 423 kts 293°
2026-04-18 07:20 48.53928 12.94576 34215 ft 423 kts 293°
2026-04-18 07:21 48.56075 12.86322 34215 ft 423 kts 292°
2026-04-18 07:21 48.58222 12.78053 34215 ft 423 kts 292°
2026-04-18 07:22 48.60365 12.69774 34218 ft 423 kts 292°
2026-04-18 07:22 48.62500 12.61481 34214 ft 423 kts 292°
2026-04-18 07:23 48.64628 12.53181 34216 ft 423 kts 292°
2026-04-18 07:23 48.66753 12.44871 34203 ft 424 kts 292°
2026-04-18 07:24 48.68860 12.36601 34209 ft 424 kts 292°
2026-04-18 07:24 48.70975 12.28275 34196 ft 424 kts 291°
2026-04-18 07:25 48.73083 12.19926 34205 ft 424 kts 291°
2026-04-18 07:25 48.75044 12.11494 34196 ft 425 kts 284°
2026-04-18 07:26 48.76065 12.02659 34208 ft 426 kts 280°
2026-04-18 07:26 48.76997 11.93808 34215 ft 426 kts 280°
2026-04-18 07:27 48.77943 11.84947 34214 ft 426 kts 280°
2026-04-18 07:27 48.78887 11.76088 34217 ft 425 kts 279°
2026-04-18 07:28 48.79822 11.67229 34222 ft 425 kts 279°
2026-04-18 07:28 48.80750 11.58368 34231 ft 425 kts 279°
2026-04-18 07:29 48.81663 11.49501 34228 ft 425 kts 279°
2026-04-18 07:29 48.82572 11.40643 34227 ft 425 kts 279°
2026-04-18 07:30 48.83476 11.31774 34229 ft 425 kts 279°
2026-04-18 07:30 48.85036 11.23156 34228 ft 426 kts 295°
2026-04-18 07:31 48.86584 11.19327 34230 ft 427 kts 306°
2026-04-18 07:31 48.88611 11.16022 34231 ft 429 kts 315°
2026-04-18 07:31 48.93045 11.09936 34232 ft 429 kts 316°
2026-04-18 07:32 48.97471 11.03827 34225 ft 430 kts 315°
2026-04-18 07:32 49.01870 10.97665 34228 ft 430 kts 315°
2026-04-18 07:33 49.06258 10.91477 34227 ft 430 kts 315°
2026-04-18 07:33 49.10654 10.85279 34224 ft 430 kts 315°
2026-04-18 07:34 49.15035 10.79071 34230 ft 430 kts 315°
2026-04-18 07:34 49.19415 10.72851 34223 ft 429 kts 314°
2026-04-18 07:35 49.23588 10.66340 34220 ft 429 kts 312°
2026-04-18 07:35 49.27713 10.59829 34223 ft 429 kts 312°
2026-04-18 07:36 49.31864 10.53272 34214 ft 429 kts 311°
2026-04-18 07:36 49.35971 10.46649 34214 ft 427 kts 307°
2026-04-18 07:37 49.39449 10.39283 34205 ft 426 kts 303°
2026-04-18 07:37 49.42833 10.31817 34210 ft 426 kts 303°
2026-04-18 07:38 49.46220 10.24353 34209 ft 426 kts 303°
2026-04-18 07:38 49.49607 10.16887 34204 ft 426 kts 303°
2026-04-18 07:39 49.52993 10.09414 34206 ft 425 kts 303°
2026-04-18 07:39 49.56373 10.01936 34202 ft 425 kts 302°
2026-04-18 07:40 49.59741 9.94451 34203 ft 425 kts 302°
2026-04-18 07:40 49.63102 9.86944 34197 ft 425 kts 302°
2026-04-18 07:41 49.66457 9.79438 34193 ft 425 kts 302°
2026-04-18 07:41 49.69810 9.71925 34190 ft 425 kts 302°
2026-04-18 07:42 49.73159 9.64403 34190 ft 425 kts 302°
2026-04-18 07:42 49.76498 9.56871 34186 ft 425 kts 302°
2026-04-18 07:43 49.78156 9.53123 33698 ft 421 kts 302°
2026-04-18 07:43 49.79808 9.49383 32715 ft 424 kts 302°
2026-04-18 07:43 49.81479 9.45596 31713 ft 427 kts 302°
2026-04-18 07:43 49.83155 9.41785 30735 ft 430 kts 302°
2026-04-18 07:44 49.84845 9.37944 29693 ft 433 kts 302°
2026-04-18 07:44 49.86354 9.33915 28572 ft 432 kts 292°
2026-04-18 07:44 49.87319 9.29508 27515 ft 432 kts 285°
2026-04-18 07:44 49.88148 9.25033 26499 ft 433 kts 285°
2026-04-18 07:45 49.88974 9.20553 25497 ft 430 kts 285°
2026-04-18 07:45 49.89803 9.16131 24553 ft 426 kts 285°
2026-04-18 07:45 49.90629 9.11746 23668 ft 421 kts 286°
2026-04-18 07:45 49.91440 9.07466 22661 ft 416 kts 286°
2026-04-18 07:46 49.92261 9.03130 21679 ft 411 kts 286°
2026-04-18 07:46 49.93164 8.98956 20763 ft 406 kts 294°
2026-04-18 07:46 49.94722 8.95344 19932 ft 402 kts 311°
2026-04-18 07:46 49.96897 8.92676 19183 ft 398 kts 329°
2026-04-18 07:47 49.99469 8.91191 18467 ft 395 kts 346°
2026-04-18 07:47 50.02197 8.91009 17660 ft 394 kts
2026-04-18 07:47 50.04792 8.92116 16892 ft 394 kts 22°
2026-04-18 07:47 50.07116 8.94462 16122 ft 393 kts 38°
2026-04-18 07:48 50.08903 8.97593 15377 ft 394 kts 56°
2026-04-18 07:48 50.10052 9.01435 14649 ft 392 kts 72°
2026-04-18 07:48 50.10691 9.05531 13984 ft 386 kts 81°
2026-04-18 07:48 50.10811 9.09661 13345 ft 379 kts 91°
2026-04-18 07:49 50.10705 9.13711 12763 ft 369 kts 93°
2026-04-18 07:49 50.10564 9.17651 12230 ft 359 kts 94°
2026-04-18 07:49 50.10421 9.21488 11717 ft 350 kts 94°
2026-04-18 07:49 50.10283 9.25223 11234 ft 341 kts 94°
2026-04-18 07:50 50.10151 9.28840 10909 ft 328 kts 94°
2026-04-18 07:50 50.10029 9.32315 10626 ft 314 kts 94°
2026-04-18 07:50 50.09913 9.35639 10361 ft 301 kts 94°
2026-04-18 07:50 50.09801 9.38846 10102 ft 294 kts 94°
2026-04-18 07:51 50.09693 9.42016 9836 ft 292 kts 94°
2026-04-18 07:51 50.09620 9.44143 9656 ft 291 kts 94°
2026-04-18 07:51 50.09801 9.47264 9382 ft 291 kts 72°
2026-04-18 07:51 50.10678 9.50041 9117 ft 290 kts 54°
2026-04-18 07:52 50.12107 9.52270 8854 ft 288 kts 32°
2026-04-18 07:52 50.13930 9.53454 8420 ft 284 kts
2026-04-18 07:52 50.15861 9.53454 7968 ft 281 kts 347°
2026-04-18 07:52 50.17652 9.52347 7499 ft 277 kts 326°
2026-04-18 07:53 50.19043 9.50319 7069 ft 274 kts 304°
2026-04-18 07:53 50.19866 9.47680 6642 ft 270 kts 284°
2026-04-18 07:53 50.20177 9.44803 6236 ft 269 kts 276°
2026-04-18 07:53 50.20389 9.41915 5807 ft 267 kts 275°
2026-04-18 07:54 50.20603 9.39070 5547 ft 260 kts 276°
2026-04-18 07:54 50.20825 9.36327 5392 ft 249 kts 276°
2026-04-18 07:54 50.21045 9.33706 5235 ft 237 kts 275°
2026-04-18 07:54 50.21035 9.31217 5044 ft 224 kts 256°
2026-04-18 07:55 50.20652 9.28888 4965 ft 222 kts 263°
2026-04-18 07:55 50.20583 9.26472 4984 ft 223 kts 268°
2026-04-18 07:55 50.20530 9.24064 4979 ft 222 kts 258°
2026-04-18 07:55 50.20015 9.21805 4994 ft 221 kts 243°
2026-04-18 07:56 50.19288 9.19697 4990 ft 221 kts 240°
2026-04-18 07:56 50.18545 9.17647 4986 ft 211 kts 239°
2026-04-18 07:56 50.17824 9.15659 4988 ft 210 kts 239°
2026-04-18 07:56 50.17130 9.13658 4996 ft 210 kts 244°
2026-04-18 07:57 50.16577 9.11551 4996 ft 208 kts 249°
2026-04-18 07:57 50.16102 9.09526 4971 ft 188 kts 249°
2026-04-18 07:57 50.15645 9.07607 5043 ft 190 kts 249°
2026-04-18 07:57 50.15188 9.05681 5030 ft 190 kts 248°
2026-04-18 07:58 50.14274 9.01829 5012 ft 189 kts 248°
2026-04-18 07:58 50.13818 8.99906 4999 ft 189 kts 249°
2026-04-18 07:58 50.13361 8.97982 4997 ft 189 kts 249°
2026-04-18 07:59 50.12919 8.96117 4983 ft 179 kts 248°
2026-04-18 07:59 50.12487 8.94299 4955 ft 179 kts 248°
2026-04-18 07:59 50.12058 8.92495 4827 ft 174 kts 248°
2026-04-18 07:59 50.11648 8.90769 4652 ft 168 kts 248°
2026-04-18 08:00 50.11262 8.89143 4454 ft 147 kts 249°
2026-04-18 08:00 50.10916 8.87684 4238 ft 141 kts 248°
2026-04-18 08:00 50.10577 8.86262 4048 ft 140 kts 248°
2026-04-18 08:00 50.10239 8.84843 3864 ft 140 kts 248°
2026-04-18 08:01 50.09907 8.83445 3687 ft 139 kts 249°
2026-04-18 08:01 50.09576 8.82051 3505 ft 139 kts 248°
2026-04-18 08:01 50.09236 8.80625 3337 ft 138 kts 248°
2026-04-18 08:01 50.08903 8.79222 3149 ft 138 kts 249°
2026-04-18 08:02 50.08570 8.77822 2963 ft 138 kts 249°
2026-04-18 08:02 50.08238 8.76427 2784 ft 137 kts 249°
2026-04-18 08:02 50.07907 8.75034 2595 ft 137 kts 250°
2026-04-18 08:02 50.07576 8.73645 2412 ft 137 kts 250°
2026-04-18 08:03 50.07245 8.72256 2225 ft 137 kts 251°
2026-04-18 08:03 50.06914 8.70866 2050 ft 137 kts 251°
2026-04-18 08:03 50.06584 8.69478 1861 ft 137 kts 251°
2026-04-18 08:03 50.06256 8.68091 1689 ft 136 kts 251°
2026-04-18 08:04 50.05934 8.66709 1482 ft 136 kts 251°
2026-04-18 08:04 50.05605 8.65330 1316 ft 136 kts 251°
2026-04-18 08:04 50.05275 8.63945 1174 ft 137 kts 251°
2026-04-18 08:04 50.04944 8.62551 991 ft 137 kts 250°
2026-04-18 08:05 50.04605 8.61158 785 ft 138 kts 250°
2026-04-18 08:05 50.04273 8.59761 585 ft 138 kts 250°
2026-04-18 08:05 50.03934 8.58363 400 ft 138 kts 250°
2026-04-18 08:05 50.03632 8.57082 360 ft 110 kts 250°
2026-04-18 08:06 50.03427 8.56223 359 ft 61 kts 250°
2026-04-18 08:06 50.03327 8.55799 353 ft 32 kts 252°
2026-04-18 08:06 50.03313 8.55522 348 ft 25 kts 275°
2026-04-18 08:06 50.03336 8.55296 352 ft 14 kts 278°
2026-04-18 08:07 50.03391 8.55181 354 ft 16 kts
2026-04-18 08:07 50.03458 8.55331 353 ft 19 kts 70°
2026-04-18 08:07 50.03506 8.55534 358 ft 21 kts 69°
2026-04-18 08:07 50.03560 8.55757 353 ft 23 kts 70°
2026-04-18 08:08 50.03618 8.56004 361 ft 25 kts 70°
2026-04-18 08:08 50.03683 8.56273 361 ft 27 kts 69°
2026-04-18 08:08 50.03747 8.56540 359 ft 21 kts 69°
2026-04-18 08:08 50.03802 8.56770 361 ft 23 kts 70°
2026-04-18 08:09 50.03861 8.57019 365 ft 26 kts 70°
2026-04-18 08:09 50.03925 8.57286 369 ft 28 kts 69°
2026-04-18 08:09 50.03984 8.57533 374 ft 24 kts 70°
2026-04-18 08:09 50.04045 8.57787 372 ft 26 kts 69°
2026-04-18 08:10 50.04103 8.58028 372 ft 21 kts 69°
2026-04-18 08:10 50.04177 8.58162 372 ft 12 kts 26°
2026-04-18 08:10 50.04227 8.58200 372 ft 4 kts 22°
2026-04-18 08:10 50.04229 8.58201 372 ft 0 kts 20°
2026-04-18 08:11 50.04230 8.58202 372 ft 1 kts 20°
2026-04-18 08:11 50.04265 8.58209 372 ft 14 kts 356°
2026-04-18 08:11 50.04396 8.58141 373 ft 21 kts 339°
2026-04-18 08:11 50.04521 8.58068 372 ft 19 kts 340°
2026-04-18 08:12 50.04638 8.58001 366 ft 14 kts 339°
2026-04-18 08:12 50.04704 8.57902 363 ft 16 kts 266°
2026-04-18 08:12 50.04674 8.57764 365 ft 9 kts 248°
2026-04-18 08:12 50.04661 8.57705 366 ft 7 kts 250°
2026-04-18 08:13 50.04643 8.57617 366 ft 10 kts 268°
2026-04-18 08:13 50.04660 8.57587 370 ft 1 kts
2026-04-18 08:13 50.04674 8.57596 362 ft 4 kts 24°
2026-04-18 08:13 50.04701 8.57616 366 ft 2 kts 24°
2026-04-18 08:14 50.04711 8.57623 363 ft 0 kts 24°